Wind_Speed
10 10 10 9 9 10 10 10 10 10 11 11 10 11 11 12 11 11 12 12 13 13 13 13 14 14 14 15 15 16 17 18 19 20 20 21 22 23
11 12 12 11 11 11 11 11 11 12 12 12 12 12 12 13 13 13 13 13 14 14 15 15 15 16 16 17 17 18 19 19 20 21 22 22 23 24
13 13 13 13 12 12 13 12 12 12 13 13 13 13 13 13 13 14 14 15 15 16 16 17 17 18 18 19 19 20 21 21 22 23 23 24 25 26
13 14 14 14 13 13 13 13 13 13 13 13 13 14 14 14 14 15 16 16 17 18 18 18 19 19 20 20 21 21 22 22 23 24 25 25 26 27
15 15 15 15 15 15 14 14 15 15 15 15 15 16 16 16 16 16 17 17 18 19 19 20 20 21 22 22 22 22 23 23 24 24 26 26 27 27
15 15 16 16 16 16 16 16 16 16 16 16 16 17 18 18 19 19 19 19 19 20 20 21 21 22 22 23 24 24 24 24 25 26 26 27 27 28
16 16 16 17 17 17 17 17 17 17 18 17 17 18 19 20 20 21 21 21 21 22 22 22 23 23 23 24 25 25 25 25 26 27 27 27 28 28
17 17 17 18 18 19 18 18 18 19 19 19 20 20 20 21 21 22 22 22 22 22 23 23 23 24 24 24 25 25 26 26 27 27 28 28 28 28
18 18 18 19 20 19 19 19 19 20 20 20 21 21 21 21 22 22 22 23 23 23 23 23 24 24 25 25 25 26 26 27 27 28 28 28 28 29
18 19 19 20 20 20 20 21 21 21 21 22 22 22 22 23 23 23 23 23 24 24 24 24 24 25 25 25 26 26 26 27 28 28 28 28 29 29
20 21 21 22 21 22 22 22 23 23 23 23 23 23 23 23 23 23 24 24 24 24 24 24 24 25 25 26 26 27 28 28 28 29 29 29 30 30
22 22 23 23 23 23 23 23 23 23 23 24 24 25 25 25 25 25 25 24 24 24 24 24 25 25 26 26 27 28 28 29 29 29 30 30 30 30
24 24 24 24 24 24 25 24 24 24 25 25 25 26 26 26 26 26 26 25 25 24 24 25 26 27 27 28 28 29 29 30 30 30 30 31 31 31
25 26 26 26 26 26 26 26 26 26 26 26 26 26 27 27 27 27 27 26 26 26 25 26 27 28 29 29 29 29 30 30 31 31 31 32 32 32
27 27 27 27 27 27 28 28 27 27 28 27 27 27 27 27 27 28 28 27 27 28 28 28 29 30 30 30 30 30 31 31 32 33 33 33 34 33
29 29 28 28 28 29 29 29 29 28 28 28 28 29 29 28 28 28 29 29 29 29 30 30 31 31 31 31 31 31 32 32 33 34 34 34 34 33
30 30 29 29 29 29 29 29 29 29 28 28 28 29 29 29 29 29 29 29 30 31 32 32 32 32 32 31 32 32 33 33 34 34 34 34 33 32
31 30 30 29 29 29 29 28 29 29 29 29 29 30 30 30 30 30 30 31 32 32 33 33 33 33 33 32 33 33 33 34 34 34 34 34 33 33
31 30 29 30 29 29 29 29 29 29 30 30 31 31 31 31 31 32 32 33 33 33 34 34 34 34 34 34 34 34 35 35 35 35 35 35 34 34
31 30 30 30 30 30 30 30 30 31 31 32 32 32 32 33 33 33 34 34 34 35 35 35 36 36 36 36 36 36 36 36 36 36 35 36 36 35
31 31 31 31 31 31 31 32 32 32 33 33 33 33 34 34 35 35 35 36 36 37 37 36 36 36 37 37 37 37 37 37 37 37 36 36 36 36
32 32 32 32 32 32 32 33 33 33 33 34 34 35 35 36 37 37 38 38 38 38 38 37 37 38 38 38 38 38 38 37 38 37 37 37 37 36
33 33 33 34 34 34 33 33 34 34 35 35 36 36 36 37 37 38 39 40 39 39 39 39 39 39 39 39 39 39 39 38 38 38 38 38 37 37
Wind_Direction
276 278 276 275 275 275 271 268 271 274 276 277 280 283 284 286 287 288 291 293 294 294 294 291 291 293 293 292 292 292 292 293 294 295 295 295 295 295
276 279 281 280 277 278 276 271 268 271 276 278 279 280 283 284 285 286 288 291 294 295 296 294 293 293 293 293 292 292 293 294 295 296 297 297 297 297
279 278 281 281 278 275 276 278 274 273 275 278 280 279 281 280 282 285 288 289 292 293 294 293 293 292 292 293 293 292 292 294 295 296 297 298 299 298
278 278 280 279 280 277 277 279 279 277 277 279 281 282 283 282 282 285 288 289 290 292 292 293 293 293 292 292 292 292 293 294 295 296 298 299 300 300
280 279 279 279 277 278 278 278 277 276 277 279 280 282 284 285 286 287 288 290 291 292 293 293 293 293 293 292 293 293 293 294 295 297 298 299 299 300
280 280 279 278 277 276 277 278 277 276 276 278 279 282 283 282 284 286 288 289 291 293 294 294 294 294 293 292 293 293 293 293 295 297 299 299 299 299
278 279 279 278 277 276 275 276 277 278 278 278 279 281 281 282 283 285 287 289 289 291 292 293 294 294 294 293 293 293 293 293 295 297 299 299 299 299
278 279 279 277 279 277 276 277 278 279 281 282 282 282 282 283 285 287 288 289 288 289 290 293 295 294 294 294 294 295 297 295 295 296 298 298 298 298
278 278 278 279 280 278 276 276 277 278 280 283 283 284 284 285 287 288 288 289 289 289 289 291 293 295 294 294 294 295 296 297 297 297 298 299 299 298
277 277 277 280 282 279 276 275 276 277 279 281 283 284 285 286 287 287 287 288 290 289 289 290 292 294 296 296 295 296 297 297 297 297 298 298 298 298
277 277 277 279 280 279 277 277 276 276 277 278 281 282 282 285 286 287 287 289 290 290 289 289 290 294 297 297 298 297 297 296 296 296 296 298 299 299
277 277 278 278 279 278 277 276 276 276 277 278 280 282 281 283 286 288 288 289 288 288 288 289 291 293 295 296 297 298 298 297 296 296 297 297 298 298
277 278 277 278 278 278 276 277 278 278 277 278 281 282 282 282 284 286 287 288 288 288 289 290 291 293 295 295 295 295 296 297 296 296 297 298 298 298
279 280 278 277 278 279 278 277 278 278 279 279 280 281 282 283 283 284 285 286 288 288 288 291 293 294 295 296 295 295 295 296 296 295 296 298 297 297
280 279 277 277 278 278 278 279 279 280 281 281 281 281 282 283 283 283 284 284 285 287 287 290 292 293 295 296 296 295 295 295 295 295 296 297 298 297
279 277 276 276 277 278 278 279 280 280 281 280 280 281 282 282 282 282 283 282 283 285 287 290 292 292 293 295 296 296 296 296 296 296 296 297 298 298
277 275 274 274 275 278 278 278 279 280 280 281 280 281 282 284 284 282 284 284 284 284 285 288 290 291 291 292 294 296 296 296 295 295 296 297 296 297
276 275 275 275 277 278 278 277 277 279 279 280 280 281 283 283 284 284 284 285 286 286 288 288 288 289 290 291 292 294 297 297 296 295 295 296 296 296
277 276 275 275 277 278 278 277 277 278 280 280 281 282 283 283 284 284 285 285 286 287 288 288 289 288 289 291 292 294 297 297 297 296 296 296 295 295
279 277 276 275 277 278 278 278 278 279 280 280 280 281 282 282 282 283 285 286 286 287 287 288 289 289 289 289 290 292 294 296 296 297 296 296 296 296
278 277 275 275 277 279 279 279 279 280 281 281 281 282 282 282 282 283 284 286 287 287 288 288 288 288 288 289 290 291 292 294 294 295 296 297 297 296
278 277 276 276 277 279 280 279 279 280 281 282 282 283 283 283 283 283 284 285 286 288 288 288 287 287 288 289 289 290 291 292 292 293 295 296 297 297
277 276 277 277 277 279 279 280 280 281 282 283 283 283 283 284 285 285 284 284 284 286 287 287 286 286 287 288 289 289 290 291 291 291 293 295 295 295
Height
5842 5841 5840 5840 5839 5838 5837 5837 5836 5836 5835 5834 5833 5832 5831 5830 5829 5828 5827 5825 5824 5823 5821 5820 5819 5818 5817 5815 5814 5813 5812 5811 5809 5807 5806 5803 5802 5800
5839 5838 5838 5837 5836 5835 5834 5834 5833 5833 5832 5831 5830 5829 5828 5827 5826 5824 5823 5822 5821 5820 5818 5817 5815 5814 5813 5811 5810 5809 5807 5806 5804 5802 5800 5798 5796 5794
5836 5835 5835 5834 5833 5832 5831 5830 5830 5829 5828 5827 5826 5825 5824 5823 5822 5821 5820 5819 5817 5816 5814 5813 5811 5810 5808 5807 5805 5804 5802 5800 5798 5796 5794 5792 5789 5787
5832 5832 5831 5830 5829 5828 5828 5827 5826 5825 5825 5824 5823 5821 5820 5819 5818 5817 5816 5814 5813 5812 5810 5808 5807 5805 5804 5802 5800 5798 5797 5794 5792 5790 5788 5785 5783 5780
5829 5828 5827 5826 5826 5825 5824 5823 5822 5821 5820 5819 5819 5817 5816 5815 5814 5813 5811 5810 5808 5807 5805 5803 5802 5800 5798 5796 5794 5792 5790 5788 5786 5784 5781 5778 5775 5772
5824 5824 5823 5822 5821 5820 5819 5819 5818 5816 5815 5815 5814 5813 5811 5810 5809 5808 5806 5805 5803 5801 5799 5798 5796 5794 5792 5790 5788 5786 5784 5781 5779 5776 5774 5771 5768 5765
5820 5819 5818 5817 5816 5815 5814 5813 5812 5811 5810 5810 5808 5807 5806 5804 5803 5801 5800 5798 5797 5795 5793 5792 5790 5788 5785 5783 5781 5779 5777 5774 5772 5769 5766 5763 5760 5757
5814 5814 5813 5812 5811 5810 5809 5808 5807 5806 5805 5804 5802 5801 5800 5798 5796 5795 5793 5792 5791 5789 5787 5785 5783 5781 5778 5776 5774 5772 5769 5766 5764 5761 5758 5755 5752 5749
5809 5808 5807 5806 5805 5804 5803 5802 5801 5799 5798 5797 5796 5794 5793 5791 5790 5788 5786 5784 5783 5781 5780 5778 5776 5774 5771 5769 5767 5764 5762 5759 5756 5753 5750 5747 5744 5740
5803 5802 5801 5800 5799 5798 5797 5795 5794 5793 5792 5790 5789 5788 5786 5784 5783 5781 5779 5777 5776 5774 5772 5771 5769 5767 5764 5762 5759 5757 5754 5751 5748 5745 5742 5739 5735 5732
5797 5796 5795 5794 5792 5791 5790 5789 5787 5786 5785 5783 5782 5781 5779 5777 5775 5774 5772 5770 5769 5767 5764 5763 5761 5759 5757 5754 5751 5749 5746 5743 5740 5737 5734 5731 5727 5724
5790 5789 5787 5786 5785 5784 5782 5781 5780 5778 5777 5776 5775 5773 5772 5770 5768 5766 5765 5763 5761 5759 5757 5755 5754 5751 5750 5747 5744 5741 5738 5735 5732 5729 5726 5722 5719 5715
5782 5781 5780 5778 5777 5776 5775 5773 5772 5771 5770 5768 5767 5765 5764 5762 5760 5759 5757 5755 5753 5752 5750 5748 5746 5743 5741 5739 5736 5733 5730 5727 5723 5720 5717 5714 5710 5707
5774 5772 5771 5770 5769 5768 5767 5765 5764 5763 5762 5760 5759 5757 5756 5754 5752 5751 5749 5747 5746 5744 5742 5740 5738 5735 5733 5730 5728 5725 5721 5718 5715 5712 5708 5705 5701 5697
5765 5764 5762 5761 5760 5759 5758 5757 5756 5754 5753 5752 5750 5749 5747 5746 5744 5742 5740 5739 5737 5735 5734 5731 5729 5726 5724 5721 5718 5716 5712 5709 5706 5702 5699 5696 5692 5688
5756 5754 5753 5752 5751 5750 5749 5748 5747 5745 5744 5743 5741 5740 5738 5737 5735 5733 5732 5730 5728 5727 5725 5722 5720 5718 5715 5712 5709 5706 5703 5700 5696 5693 5689 5686 5682 5678
5747 5745 5744 5743 5742 5741 5740 5739 5738 5736 5735 5734 5732 5731 5729 5728 5726 5724 5722 5721 5719 5717 5715 5713 5711 5708 5705 5703 5700 5696 5693 5690 5686 5683 5679 5676 5672 5668
5737 5736 5735 5734 5733 5732 5731 5730 5728 5727 5726 5725 5723 5722 5720 5719 5717 5715 5713 5711 5710 5707 5705 5703 5701 5698 5696 5693 5690 5687 5683 5680 5676 5673 5669 5666 5663 5659
5727 5727 5726 5725 5724 5723 5721 5720 5719 5718 5716 5715 5714 5712 5710 5709 5707 5705 5703 5701 5700 5698 5695 5693 5690 5688 5686 5684 5681 5677 5673 5670 5666 5662 5659 5656 5653 5649
5718 5717 5716 5715 5714 5713 5712 5711 5709 5708 5706 5705 5703 5702 5700 5699 5697 5695 5693 5691 5689 5687 5685 5682 5680 5677 5674 5672 5670 5667 5663 5659 5655 5652 5649 5645 5642 5639
5709 5707 5706 5705 5704 5703 5702 5701 5699 5698 5696 5695 5693 5691 5689 5688 5686 5684 5682 5680 5678 5676 5673 5671 5668 5665 5662 5660 5658 5655 5652 5648 5644 5641 5638 5634 5631 5628
5699 5698 5696 5695 5694 5693 5692 5690 5689 5687 5686 5684 5683 5681 5679 5677 5675 5673 5671 5669 5666 5664 5662 5659 5656 5653 5651 5648 5646 5643 5640 5637 5634 5630 5627 5623 5619 5616
5689 5687 5686 5685 5684 5683 5681 5680 5678 5677 5675 5673 5671 5669 5667 5665 5663 5660 5658 5656 5654 5651 5649 5647 5644 5641 5639 5636 5633 5631 5628 5625 5622 5619 5616 5612 5609 5606